www.pogodaiklimat.ru

Погода и климат >> Архив погоды >> Южная Африка >> Аэропорт Вирджиния


ПОГОДА в Аэропорту Вирджиния

  • Прогноз погоды в Аэропорту Вирджиния
  • Монитор погоды в Аэропорту Вирджиния

АРХИВ ПОГОДЫ в Аэропорту Вирджиния

Время (UTC), дата Ветер
(напр.,м/с)
 
Видим.   Явления Облачность Т
(С)
Тd
(С)
f
(%)
Тe
(С)
Тes
(С)
Комфортность P
(гПа)
Po
(гПа)
Тmin
(С)
Tmax
(С)
R
(мм)
R24
(мм)
S
(см)
21 10.06 ЮВ 2 н/о н/о +20.3 +14.5 69 +23 +23 комфорт 1024.2 1022.6 +20.1 +28.9
00 11.06 В 3 н/о н/о +18.9 +14.0 73 +20 +20 1024.4 1022.8 +18.9 +28.9
03 11.06 З 3 н/о н/о +17.4 +12.5 73 +18 +18 1024.1 1022.5 +17.4 +28.9
06 11.06 З 3 н/о н/о +18.1 +11.5 65 +18 +18 1025.4 1023.8 +16.8
09 11.06 СЗ 2 н/о н/о +24.5 +14.7 54 +27 +27 жарко 1024.4 1022.8 +16.8 +24.5
12 11.06 В 4 н/о н/о +23.1 +17.2 69 +28 +28 душно 1021.1 1019.5 +16.8 +24.5
15 11.06 СВ 3 н/о н/о +21.7 +18.1 80 +26 +26 душно 1020.3 1018.7 +21.7 +24.5
18 11.06 С 1 н/о н/о +19.4 +16.6 84 +22 +22 комфорт 1019.6 1018.0 +19.4 +24.5
21 11.06 З 2 н/о н/о +16.3 +14.1 87 +17 +17 1019.1 1017.5 +16.3 +24.5
00 12.06 З 2 н/о н/о +14.6 +12.3 86 +15 +15 1017.4 1015.8 +14.6 +24.5
03 12.06 З 2 н/о н/о +13.6 +9.8 78 +13 +13 1016.7 1015.1 +13.5 +24.5
06 12.06 З 2 н/о н/о +17.9 +9.8 59 +19 +19 1017.9 1016.3 +13.5
09 12.06 В 2 н/о н/о +23.1 +13.4 54 +26 +26 жарко 1017.7 1016.1 +13.5 +26.4
12 12.06 В 2 н/о н/о +24.1 +14.6 55 +27 +27 жарко 1015.7 1014.1 +13.5 +26.4
15 12.06 З 2 н/о н/о +21.4 +11.5 53 +23 +23 комфорт 1017.5 1015.9 +21.4 +26.4
18 12.06 ЮЗ 3 н/о н/о +21.8 +17.2 75 +26 +26 душно 1020.9 1019.3 +21.1 +26.4
21 12.06 ЮЗ 3 н/о н/о +20.9 +15.7 72 +25 +25 комфорт 1023.0 1021.4 +20.9 +26.4
00 13.06 ЮЗ 4 н/о н/о +19.8 +14.4 71 +22 +22 комфорт 1024.1 1022.5 +19.8 +26.4
03 13.06 ЮЗ 5 н/о н/о +18.0 +5.3 43 +18 +18 1026.7 1025.1 +17.9 +26.4
06 13.06 ЮЗ 4 н/о н/о +17.6 +2.8 37 +17 +17 1030.8 1029.2 +17.5
09 13.06 ЮЗ 4 н/о н/о +19.1 +3.4 35 +19 +19 1032.4 1030.8 +17.5 +19.1
12 13.06 ЮЗ 5 н/о н/о +20.7 +8.1 44 +22 +22 комфорт 1031.3 1029.7 +17.5 +21.2
15 13.06 ЮЗ 4 н/о н/о +18.6 +7.2 47 +19 +19 1032.7 1031.1 +18.6 +21.2
18 13.06 З 2 н/о н/о +16.5 +9.0 61 +17 +17 1034.1 1032.4 +16.5 +21.2
21 13.06 З 1 н/о н/о +16.0 +9.2 64 +17 +17 1034.7 1033.0 +15.7 +21.2
00 14.06 З 2 н/о н/о +14.6 +7.7 63 +15 +15 1033.4 1031.7 +14.5 +21.2
03 14.06 З 3 н/о н/о +12.9 +5.8 62 +12 +12 1033.3 1031.6 +12.7 +21.2
06 14.06 З 3 н/о н/о +13.6 +5.5 58 +13 +13 1033.2 1031.5 +12.3
09 14.06 СВ 3 н/о н/о +20.5 +9.5 49 +22 +22 комфорт 1031.9 1030.3 +12.3 +21.1
12 14.06 СВ 4 н/о н/о +20.8 +11.2 54 +23 +23 комфорт 1028.8 1027.2 +12.3 +21.1
15 14.06 СВ 3 н/о н/о +19.1 +12.2 64 +20 +20 1029.0 1027.4 +19.1 +21.1
18 14.06 З 2 н/о н/о +16.9 +11.2 69 +17 +17 1030.0 1028.4 +16.9 +21.1
21 14.06 З 2 н/о н/о +16.2 +10.7 70 +16 +16 1029.4 1027.7 +15.7 +21.1
00 15.06 З 2 н/о н/о +13.9 +10.1 78 +14 +14 1027.6 1025.9 +13.8 +21.1
03 15.06 ЮЗ 2 н/о н/о +12.1 +8.6 79 +11 +11 1026.1 1024.4 +12.0 +21.1
06 15.06 З 1 н/о н/о +15.1 +7.9 62 +16 +16 1026.4 1024.7 +11.8
09 15.06 Ю 3 н/о н/о +18.8 +10.2 57 +20 +20 1025.6 1024.0 +11.8 +18.9
12 15.06 ЮВ 5 н/о н/о +21.3 +13.3 60 +24 +24 комфорт 1021.4 1019.8 +11.8 +21.7
15 15.06 ЮВ 2 н/о н/о +20.9 +16.1 74 +25 +25 комфорт 1021.3 1019.7 +20.9 +22.3
18 15.06 Ю 1 н/о н/о +17.1 +13.4 79 +18 +18 1022.0 1020.4 +17.1 +22.3
21 15.06 З 1 н/о н/о +14.4 +11.4 82 +15 +15 1022.5 1020.9 +14.0 +22.3
00 16.06 З 2 н/о н/о +15.3 +8.8 65 +15 +15 1022.3 1020.7 +13.9 +22.3
03 16.06 З 1 н/о н/о +13.8 +6.2 60 +14 +14 1023.5 1021.8 +13.5 +22.3
06 16.06 З 3 н/о н/о +17.1 +4.5 43 +17 +17 1025.8 1024.2 +13.5
09 16.06 Ю 2 н/о н/о +24.2 +8.8 37 +25 +25 комфорт 1026.6 1025.0 +13.5 +24.4
12 16.06 ЮВ 3 н/о н/о +23.9 +16.5 63 +27 +27 жарко 1024.3 1022.7 +13.5 +24.9
15 16.06 СВ 2 н/о н/о +21.1 +16.7 76 +25 +25 комфорт 1024.0 1022.4 +21.1 +24.9
18 16.06 Ю 1 н/о н/о +18.0 +15.6 86 +19 +19 1025.0 1023.4 +17.9 +24.9
21 16.06 ЮЗ 2 н/о н/о +18.0 +15.4 85 +19 +19 1024.9 1023.3 +17.9 +24.9
00 17.06 З 2 н/о н/о +13.8 +11.3 85 +14 +14 1023.9 1022.2 +13.8 +24.9
03 17.06 ЮЗ 2 н/о н/о +12.5 +7.2 70 +12 +12 1023.4 1021.7 +12.4 +24.9
06 17.06 З 2 н/о н/о +14.1 +7.6 65 +14 +14 1024.3 1022.6 +11.5
09 17.06 В 3 н/о н/о +20.9 +7.3 41 +23 +23 комфорт 1024.4 1022.8 +11.5 +22.1
12 17.06 В 1 н/о н/о +22.8 +9.0 41 +24 +24 комфорт 1022.1 1020.5 +11.5 +23.1
15 17.06 З 2 н/о н/о +17.7 +11.1 65 +18 +18 1022.2 1020.6 +17.7 +23.1
18 17.06 З 2 н/о н/о +16.4 +8.7 60 +17 +17 1023.5 1021.9 +15.4 +23.1

 

Местоположение метеостанции Аэропорт Вирджиния (Южная Африка): широта -29.77 долгота 31.06 высота над уровнем моря 6 м.

В архиве по умолчанию представлена погода в Аэропорту Вирджиния за последнюю неделю. Архивные данные за месяц целиком и за предыдущие месяцы, начиная с января 2011 года, Вы можете получить, выбрав интересующий диапазон дат из раскрывающегося списка и нажав кнопку "Ввод!".


*Определитесь, кто Вы:
робот инопланетянин человек

Внимание! Время в таблицах - всемирное. Для получения местного времени необходимо прибавить поправку, которая равна 2 ч.

Смотрите также архив погоды в соседних городах и на ближайших метеорологических станциях:

Погода в Маунт Эджком (Южная Африка) (8 км)
Погода в Аэропорту Кинг Шака (Южная Африка) (20 км)
Погода в Дурбане (Южная Африка) (24 км)
Погода в Питермарицбург аэропорту (Южная Африка) (65 км)
Погода в Питермарицбурге (Южная Африка) (66 км)
Погода в Мандини (Южная Африка) (76 км)
Погода в Пеннингтоне (Южная Африка) (78 км)
Погода в Цедаре (Южная Африка) (80 км)
Погода в Грейтауне (Южная Африка) (89 км)
Погода в Иксопо (Южная Африка) (104 км)

Пояснения к столбцам:

Ветер - указаны скорость ветра в м/с - средняя за 10 мин, порывы в срок и между сроками (в фигурных скобках) и направление, откуда дует ветер: С - северный, СВ - северо-восточный, В - восточный, ЮВ - юго-восточный, Ю - южный, ЮЗ - юго-западный, З - западный, СЗ - северо-западный.
Видимость - горизонтальная дальность видимости в метрах или километрах. При видимости от 1 до 10 км при отсутствии осадков обычно наблюдается дымка, при ухудшении видимости до 1 км и менее - туман. В сухую погоду видимость может ухудшаться дымом, пылью или мглою.
Явления - указаны атмосферные явления, наблюдавшиеся в срок или в последний час перед сроком; фигурными скобками обозначены явления, наблюдавшиеся между сроками (за 1-3 часа до срока); квадратными скобками обозначены град или гололедные отложения с указанием их диаметра в мм.
Облачность - указаны через наклонную черту общая и нижняя облачность в баллах и высота нижней границы облаков в метрах; квадратными скобками обозначены формы облаков: Ci - перистые, Cs - перисто-слоистые, Cc - перисто-кучевые, Ac - высококучевые, As - высокослоистые, Sc - слоисто-кучевые, Ns - слоисто-дождевые, Cu - кучевые, Cb - кучево-дождевые. Подробнее классификацию облаков см. в Атласе облаков (PDF).
T - Температура воздуха - температура, измеренная на высоте 2 м над землей.
Td - Температура точки росы - температура, при понижении до которой содержащийся в воздухе водяной пар достигнет насыщения.
f - Относительная влажность воздуха - влажноcть воздуха, измеренная на высоте 2 м над землей.
Te - Эффективная температура - температура, которую ощущает одетый по сезону человек в тени. Характеристика душности погоды. При расчете учитывается влияние влажности воздуха и скорости ветра на теплоощущения человека.
Tes - Эффективная температура на солнце - температура, которую ощущает человек, с поправкой на солнечный нагрев. Характеристика знойности погоды. Зависит от высоты солнца над горизонтом, облачности и скорости ветра. Ночью, в пасмурную погоду, а также при ветре 12 м/с и более поправка равна нулю.
P - Атмосферное давление - приведенное к уровню моря атмосферное давление.
Po - Атмосферное давление - измеренное на уровне метеостанции атмосферное давление.
Tmin - Минимальная температура - минимум температуры воздуха на высоте 2 м над землей.
Tmax - Максимальная температура - максимум температуры воздуха на высоте 2 м над землей.
R - Количество осадков - Количество выпавших осадков за период времени, мм. При наведении курсора мыши на число - период времени, за который выпало указанное количество осадков.
R24 - Количество осадков - Количество выпавших осадков за 24 часа, мм.
S - Снежный покров - Высота снежного покрова, см. При наведении курсора мыши на число - состояние снежного покрова и степень покрытия местности в баллах.